Location: Unspecified
(0.0000°N, 0.0000°E)
Time: 18:36:15
(UTC+00:00)

Vanguard 1 - Pass Details

Date: 22 April 2026
Orbit: 654 x 3817 km, 34.2° (Epoch: 18 May)

Event Time Altitude Azimuth Distance (km) Brightness Sun altitude
Rises 19:27:21 0° 249° (WSW) 5,244 14.7 -21.7°
Reaches altitude 10° 19:30:18 10° 254° (WSW) 4,586 14.3 -22.4°
Maximum altitude 19:43:57 55° 328° (NNW) 3,449 12.9 -25.7°
Drops below altitude 10° 20:05:47 10° 42° (NE) 6,894 14.1 -31.0°
Sets 20:11:38 0° 46° (NE) 7,936 14.4 -32.4°
